Regional Weather Roundup
Issued by NWS Kansas City/Pleasant Hill, MO

Home | Current Version | Previous Version | Graphics & Text | Print | Product List | Glossary Off
Versions: 1 2 3 4 5 6 7 8 9 10 11 12 13 14 15 16 17 18 19 20 21 22 23 24 25 26 27 28 29 30 31 32 33 34 35 36 37 38 39 40 41 42 43 44 45 46 47 48 49 50

000
ASUS43 KEAX 281110
RWREAX

WEATHER ROUNDUP FOR EASTERN KANSAS AND NORTHWEST MISSOURI
NATIONAL WEATHER SERVICE KANSAS CITY/PLEASANT HILL MO
600 AM CDT THU AUG 28 2014

KSZ040-057-103>105-MOZ028-029-037-043-281200-
...KANSAS CITY METROPOLITAN AREA...

CITY           SKY/WX    TMP DP  RH WIND       PRES   REMARKS
K.C. INTL      CLOUDY    74  72  93 SE6       29.97F
K.C. DOWNTOWN  CLOUDY    76  72  87 E5        29.96S
LEES SUMMIT    MOCLDY    75  71  87 CALM      29.98S
OLATHE - IXD   CLOUDY    75  71  87 SE7       29.98R
OLATHE - OJC   CLOUDY    74  72  93 S6        29.97S
LAWRENCE       CLOUDY    79  72  79 SE7       29.96S

$$

MOZ001>008-011>017-020>025-030>033-038>040-044>046-053-054-281200-
...NORTHERN AND CENTRAL MISSOURI...

CITY           SKY/WX    TMP DP  RH WIND       PRES   REMARKS
ST. JOSEPH     CLOUDY    73  71  93 CALM      29.96F
MOSBY          CLOUDY    72  72 100 CALM      29.97F
WHITEMAN AFB   PTCLDY    70  54  55 SE2       29.99R
CLINTON        CLEAR     75  72  88 S5        29.99S
SEDALIA        PTCLDY    71  67  87 CALM      30.01R
WARSAW         NOT AVBL
MARSHALL       MOCLDY    73  72  94 SE6       30.00S
CHILLICOTHE      N/A     73  71  93 VRB3      30.00S
MOBERLY        MOCLDY    70  66  88 E6        30.03S
KIRKSVILLE     CLOUDY    71  70  96 E6        30.03F FOG

$$

MOZ041-047>049-056>058-063>065-088>090-097-281200-
...EASTERN AND SOUTHERN MISSOURI...

CITY           SKY/WX    TMP DP  RH WIND       PRES   REMARKS
ST. LOUIS INTL PTCLDY    72  69  90 E3        30.05S
SPIRIT OF STL  CLEAR     70  69  97 CALM      30.03R FOG
COLUMBIA       PTCLDY    69  68  96 SE7       30.02S
JEFFERSON CITY CLEAR     70  67  90 SE3       30.01S
MEXICO         MOCLDY   N/A N/A N/A E6        30.03S HAZE
HANNIBAL       MOCLDY    72  70  94 SE3       30.04S
ROLLA          CLEAR     69  66  90 CALM      30.03R
LEBANON        CLEAR     72  66  83 CALM      30.05S
OSAGE BEACH    CLEAR     72  66  83 SE5       30.01F
SPRINGFIELD    PTCLDY    73  69  87 SE9       30.02F
BRANSON        CLEAR     72  68  88 CALM      30.05S
NEVADA         PTCLDY    72  68  88 S5        30.00R
JOPLIN         CLEAR     74  69  85 S7        30.00S
WEST PLAINS    CLEAR     67  65  93 CALM      30.07R

$$

IAZ060-094-KSZ022-034>040-054-083-096-NEZ052-066-093-281200-
...KANSAS...SOUTHEAST NEBRASKA AND IOWA...

CITY           SKY/WX    TMP DP  RH WIND       PRES   REMARKS
TOPEKA         LGT RAIN  78  71  79 SE6       29.94F
MANHATTAN      CLOUDY    79  67  66 S6        29.93S
EMPORIA        MOCLDY    75  68  78 S10       29.96R
CHANUTE        PTCLDY    73  68  84 SE7       29.98R
WICHITA        CLOUDY    78  65  63 S7        29.96R
OMAHA          TSTM      71  68  90 E16G24    29.95F FOG
LINCOLN        CLOUDY    71  69  93 S3        29.95S
FALLS CITY     CLOUDY    73  72  96 E7        29.95S
LAMONI         RAIN      69  68  96 NE7       30.02F
DES MOINES     LGT RAIN  69  65  86 CALM      30.04S

$$



USA.gov is the U.S. government's official web portal to all federal, state and local government web resources and services.